| time (UTC) | temp C | wind direction | speed KPH | gust KPH | rain 1hr cm | rain 24hr cm | rain mn cm | humidity % | barometer mb |
| 20260903021514 | 21 | 82 | 0.0 | 0.0 | 0.00 | 0.00 | 0.00 | 38 | 1017.4 |
| 20260903020014 | 21 | 82 | 0.0 | 0.0 | 0.00 | 0.00 | 0.00 | 39 | 1017.5 |
| 20260903014516 | 21 | 82 | 0.0 | 0.0 | 0.00 | 0.00 | 0.00 | 38 | 1017.5 |
| 20260903013012 | 21 | 82 | 0.0 | 0.0 | 0.00 | 0.00 | 0.00 | 39 | 1017.4 |
| 20260903011511 | 21 | 82 | 0.0 | 0.0 | 0.00 | 0.00 | 0.00 | 38 | 1017.4 |
| 20260903010011 | 22 | 82 | 0.0 | 0.0 | 0.00 | 0.00 | 0.00 | 37 | 1017.5 |
| 20260903004511 | 22 | 82 | 0.0 | 0.0 | 0.00 | 0.00 | 0.00 | 36 | 1017.4 |
| 20260903003008 | 21 | 82 | 0.0 | 1.6 | 0.00 | 0.00 | 0.00 | 39 | 1017.5 |
| 20260903001506 | 21 | 234 | 0.0 | 0.0 | 0.00 | 0.00 | 0.00 | 44 | 1017.5 |
| 20260903000005 | 21 | 234 | 0.0 | 0.0 | 0.00 | 0.00 | 0.00 | 45 | 1017.5 |
| 20260902234505 | 21 | 234 | 0.0 | 0.0 | 0.00 | 0.00 | 0.00 | 45 | 1017.4 |
| 20260902233106 | 21 | 248 | 0.0 | 0.0 | 0.00 | 0.00 | 0.00 | 44 | 1017.2 |
| 20260902231607 | 22 | 248 | 0.0 | 0.0 | 0.00 | 0.00 | 0.00 | 44 | 1017.2 |
| 20260902230054 | 22 | 248 | 0.0 | 0.0 | 0.00 | 0.00 | 0.00 | 40 | 1017.2 |
| 20260902224603 | 23 | 248 | 0.0 | 0.0 | 0.00 | 0.00 | 0.00 | 40 | 1017.0 |
| 20260902223049 | 23 | 239 | 0.0 | 1.6 | 0.00 | 0.00 | 0.00 | 39 | 1017.0 |
| 20260902221546 | 24 | 139 | 0.0 | 0.0 | 0.00 | 0.00 | 0.00 | 38 | 1016.9 |
| 20260902220045 | 25 | 120 | 1.6 | 12.9 | 0.00 | 0.00 | 0.00 | 36 | 1016.9 |
| 20260902214541 | 26 | 313 | 0.0 | 0.0 | 0.00 | 0.00 | 0.00 | 35 | 1016.7 |
| 20260902213043 | 26 | 321 | 0.0 | 1.6 | 0.00 | 0.00 | 0.00 | 36 | 1016.7 |
| 20260902211545 | 26 | 298 | 0.0 | 0.0 | 0.00 | 0.00 | 0.00 | 36 | 1016.7 |
| 20260902210046 | 26 | 298 | 0.0 | 0.0 | 0.00 | 0.00 | 0.00 | 36 | 1016.6 |
| 20260902204542 | 27 | 298 | 0.0 | 0.0 | 0.00 | 0.00 | 0.00 | 34 | 1016.7 |
| 20260902203048 | 27 | 298 | 0.0 | 0.0 | 0.00 | 0.00 | 0.00 | 34 | 1016.6 |
| 20260902201544 | 27 | 321 | 0.0 | 4.8 | 0.00 | 0.00 | 0.00 | 33 | 1016.5 |
| 20260902200051 | 28 | 226 | 0.0 | 0.0 | 0.00 | 0.00 | 0.00 | 32 | 1016.4 |
| 20260902194538 | 28 | 226 | 0.0 | 1.6 | 0.00 | 0.00 | 0.00 | 30 | 1016.1 |
| 20260902193035 | 28 | 225 | 0.0 | 1.6 | 0.00 | 0.00 | 0.00 | 31 | 1015.8 |
| 20260902191546 | 30 | 222 | 0.0 | 1.6 | 0.00 | 0.00 | 0.00 | 29 | 1015.6 |
| 20260902190039 | 30 | 220 | 0.0 | 1.6 | 0.00 | 0.00 | 0.00 | 28 | 1015.4 |
| 20260902184545 | 31 | 220 | 0.0 | 3.2 | 0.00 | 0.00 | 0.00 | 27 | 1015.1 |
| 20260902183032 | 32 | 278 | 0.0 | 3.2 | 0.00 | 0.00 | 0.00 | 27 | 1015.0 |
| 20260902181530 | 33 | 262 | 1.6 | 9.7 | 0.00 | 0.00 | 0.00 | 25 | 1015.0 |
| 20260902180033 | 33 | 264 | 1.6 | 11.3 | 0.00 | 0.00 | 0.00 | 26 | 1015.0 |
| 20260902174528 | 34 | 260 | 1.6 | 9.7 | 0.00 | 0.00 | 0.00 | 25 | 1015.0 |
| 20260902173028 | 34 | 224 | 1.6 | 16.1 | 0.00 | 0.00 | 0.00 | 24 | 1014.9 |
| 20260902171629 | 35 | 204 | 1.6 | 11.3 | 0.00 | 0.00 | 0.00 | 22 | 1014.9 |
| 20260902170026 | 35 | 296 | 3.2 | 9.7 | 0.00 | 0.00 | 0.00 | 23 | 1015.0 |
| 20260902164525 | 35 | 264 | 4.8 | 12.9 | 0.00 | 0.00 | 0.00 | 22 | 1015.0 |
| 20260902163025 | 35 | 220 | 1.6 | 11.3 | 0.00 | 0.00 | 0.00 | 22 | 1015.1 |
| 20260902161523 | 35 | 251 | 3.2 | 11.3 | 0.00 | 0.00 | 0.00 | 22 | 1015.2 |
| 20260902160022 | 35 | 330 | 4.8 | 14.5 | 0.00 | 0.00 | 0.00 | 21 | 1015.3 |
| 20260902154526 | 35 | 297 | 4.8 | 12.9 | 0.00 | 0.00 | 0.00 | 22 | 1015.4 |
| 20260902153023 | 35 | 259 | 3.2 | 9.7 | 0.00 | 0.00 | 0.00 | 24 | 1015.3 |
| 20260902151518 | 35 | 216 | 3.2 | 16.1 | 0.00 | 0.00 | 0.00 | 24 | 1015.5 |
| 20260902150015 | 35 | 276 | 1.6 | 6.4 | 0.00 | 0.00 | 0.00 | 24 | 1015.4 |
| 20260902144519 | 35 | 103 | 1.6 | 11.3 | 0.00 | 0.00 | 0.00 | 24 | 1015.7 |
| 20260902143014 | 34 | 299 | 1.6 | 14.5 | 0.00 | 0.00 | 0.00 | 23 | 1015.7 |
| 20260902141511 | 34 | 277 | 4.8 | 14.5 | 0.00 | 0.00 | 0.00 | 25 | 1015.7 |
| 20260902140010 | 33 | 290 | 3.2 | 12.9 | 0.00 | 0.00 | 0.00 | 26 | 1016.0 |
| 20260902134510 | 34 | 68 | 1.6 | 8.0 | 0.00 | 0.00 | 0.00 | 28 | 1016.0 |
| 20260902133008 | 33 | 323 | 8.0 | 14.5 | 0.00 | 0.00 | 0.00 | 27 | 1016.1 |
| 20260902131504 | 33 | 233 | 3.2 | 8.0 | 0.00 | 0.00 | 0.00 | 25 | 1016.3 |
| 20260902130100 | 32 | 259 | 1.6 | 11.3 | 0.00 | 0.00 | 0.00 | 24 | 1016.2 |
| 20260902124658 | 32 | 276 | 4.8 | 14.5 | 0.00 | 0.00 | 0.00 | 26 | 1016.3 |
| 20260902123115 | 32 | 217 | 3.2 | 16.1 | 0.00 | 0.00 | 0.00 | 29 | 1016.5 |
| 20260902121558 | 32 | 227 | 3.2 | 20.9 | 0.00 | 0.00 | 0.00 | 28 | 1016.8 |
| 20260902120104 | 32 | 52 | 0.0 | 11.3 | 0.00 | 0.00 | 0.00 | 31 | 1017.0 |
| 20260902114546 | 31 | 117 | 1.6 | 8.0 | 0.00 | 0.00 | 0.00 | 32 | 1017.1 |
| 20260902113043 | 31 | 156 | 1.6 | 4.8 | 0.00 | 0.00 | 0.00 | 34 | 1017.3 |
| 20260902111551 | 30 | 259 | 0.0 | 3.2 | 0.00 | 0.00 | 0.00 | 34 | 1017.6 |
| 20260902110038 | 30 | 106 | 0.0 | 4.8 | 0.00 | 0.00 | 0.00 | 38 | 1017.8 |
| 20260902104536 | 29 | 138 | 1.6 | 6.4 | 0.00 | 0.00 | 0.00 | 40 | 1017.9 |
| 20260902103033 | 28 | 257 | 1.6 | 4.8 | 0.00 | 0.00 | 0.00 | 43 | 1017.9 |
| 20260902101535 | 27 | 146 | 1.6 | 6.4 | 0.00 | 0.00 | 0.00 | 43 | 1018.1 |
| 20260902100029 | 26 | 329 | 0.0 | 8.0 | 0.00 | 0.00 | 0.00 | 44 | 1018.0 |
| 20260902094528 | 26 | 313 | 1.6 | 3.2 | 0.00 | 0.00 | 0.00 | 43 | 1018.0 |
| 20260902093025 | 26 | 98 | 0.0 | 4.8 | 0.00 | 0.00 | 0.00 | 46 | 1017.9 |
| 20260902091524 | 26 | 94 | 0.0 | 3.2 | 0.00 | 0.00 | 0.00 | 48 | 1017.9 |
| 20260902090019 | 25 | 113 | 1.6 | 4.8 | 0.00 | 0.00 | 0.00 | 47 | 1017.8 |
| 20260902084517 | 24 | 258 | 0.0 | 6.4 | 0.00 | 0.00 | 0.00 | 50 | 1017.7 |
| 20260902083014 | 23 | 102 | 0.0 | 3.2 | 0.00 | 0.00 | 0.00 | 52 | 1017.6 |
| 20260902081512 | 23 | 63 | 0.0 | 6.4 | 0.00 | 0.00 | 0.00 | 51 | 1017.6 |
| 20260902080011 | 22 | 98 | 0.0 | 4.8 | 0.00 | 0.00 | 0.00 | 47 | 1017.6 |
| 20260902074510 | 22 | 98 | 0.0 | 1.6 | 0.00 | 0.00 | 0.00 | 46 | 1017.5 |
| 20260902073008 | 21 | 97 | 1.6 | 4.8 | 0.00 | 0.00 | 0.00 | 46 | 1017.4 |
| 20260902071511 | 20 | 121 | 0.0 | 3.2 | 0.00 | 0.00 | 0.00 | 46 | 1017.3 |
| 20260902070006 | 18 | 87 | 0.0 | 3.2 | 0.00 | 0.00 | 0.00 | 51 | 1017.0 |
| 20260902064503 | 18 | 90 | 0.0 | 1.6 | 0.00 | 0.00 | 0.00 | 50 | 1016.8 |
| 20260902063002 | 18 | 109 | 0.0 | 1.6 | 0.00 | 0.00 | 0.00 | 50 | 1016.7 |
| 20260902061558 | -17 | 0.0 | 0.0 | 0.00 | 0.00 | 0.00 | 1016.5 | ||
| 20260902060053 | -17 | 0.0 | 0.0 | 0.00 | 0.00 | 0.00 | 1016.4 | ||
| 20260902054550 | -17 | 0.0 | 0.0 | 0.00 | 0.00 | 0.00 | 1016.4 | ||
| 20260902053045 | -17 | 0.0 | 0.0 | 0.00 | 0.00 | 0.00 | 1016.3 | ||
| 20260902051545 | -17 | 5 | 0.0 | 0.0 | 0.00 | 0.00 | 0.00 | 1016.1 | |
| 20260902050056 | 16 | 7 | 0.0 | 0.0 | 0.00 | 0.00 | 0.00 | 51 | 1015.8 |
| 20260902044539 | 17 | 7 | 0.0 | 0.0 | 0.00 | 0.00 | 0.00 | 51 | 1015.5 |
| 20260902043044 | 17 | 7 | 0.0 | 1.6 | 0.00 | 0.00 | 0.00 | 52 | 1015.6 |
| 20260902041536 | 16 | 236 | 0.0 | 0.0 | 0.00 | 0.00 | 0.00 | 53 | 1015.6 |
| 20260902040035 | 17 | 228 | 0.0 | 0.0 | 0.00 | 0.00 | 0.00 | 51 | 1015.6 |
| 20260902034529 | 17 | 228 | 0.0 | 0.0 | 0.00 | 0.00 | 0.00 | 50 | 1015.6 |
| 20260902033027 | 18 | 228 | 0.0 | 1.6 | 0.00 | 0.00 | 0.00 | 46 | 1015.7 |
| 20260902031524 | 18 | 162 | 0.0 | 1.6 | 0.00 | 0.00 | 0.00 | 46 | 1015.7 |
| 20260902030020 | 20 | 165 | 0.0 | 3.2 | 0.00 | 0.00 | 0.00 | 44 | 1015.5 |
| 20260902024520 | 20 | 155 | 0.0 | 0.0 | 0.00 | 0.00 | 0.00 | 43 | 1015.4 |
| 20260902023019 | 20 | 49 | 0.0 | 0.0 | 0.00 | 0.00 | 0.00 | 43 | 1015.2 |